Simultaneous Nadir Overpasses (SNOs) Predictions

Prediction of SNOs between LANDSAT-8 and METOP-A Satellite Orbit:

Table of predicted SNOs for the next 14.0 days since TLE Epoch: 7/13/2019
Index Date (LANDSAT-8) Time (LANDSAT-8) Lat,Lon (LANDSAT-8) SZA (LANDSAT-8 ) Date (METOP-A) Time (METOP-A) Lat,Lon (METOP-A) SZA (METOP-A ) Distance(km) Time Diff (sec)
1 07/14/2019 22:39:33 81.48,-113.23 62.50 07/14/2019 22:39:20 81.47,-113.40 62.47 2.86 13
2 07/14/2019 23:29:00 -81.47, 54.30 117.52 07/14/2019 23:30:00 -81.47, 54.16 117.50 2.28 60
3 07/17/2019 18:13:49 81.47, -46.95 62.92 07/17/2019 18:13:43 81.47, -46.77 62.94 2.93 6
4 07/17/2019 19:03:16 -81.47, 120.61 117.09 07/17/2019 19:04:24 -81.47, 120.42 117.07 3.03 68
5 07/20/2019 12:58:38 -81.48,-148.03 116.57 07/20/2019 12:57:27 -81.47,-148.23 116.63 3.32 71
6 07/20/2019 13:48:05 81.46, 19.30 63.40 07/20/2019 13:48:07 81.47, 19.44 63.42 2.40 2
7 07/23/2019 08:32:53 -81.47, -81.78 116.05 07/23/2019 08:31:49 -81.47, -81.60 116.06 3.01 64
8 07/23/2019 09:22:19 81.47, 85.93 63.97 07/23/2019 09:22:29 81.47, 86.03 63.98 1.72 10
9 07/26/2019 04:07:08 -81.48, -15.15 115.44 07/26/2019 04:06:12 -81.47, -14.97 115.45 3.00 56




NCC Satellite Simultaneous Nadir Overpasses (SNOs) Prediction Service
